Tracking 29892 objects as of 21-Nov-2024
HD Live streaming from Space Station
objects crossing your sky now

STARLINK-3906

Track STARLINK-3906 now!
10-day predictions
STARLINK-3906 is classified as:


NORAD ID: 52585
Int'l Code: 2022-051BB
Perigee: 546.1 km
Apogee: 547.7 km
Inclination: 53.2 °
Period: 95.4 minutes
Semi major axis: 6917 km
RCS: Unknown
Launch date: May 13, 2022
Source: United States (US)
Launch site: AIR FORCE WESTERN TEST RANGE (AFWTR)
Your satellite tracking list
Your tracking list is empty




NASA's NSSDC Master Catalog

Two Line Element Set (TLE):
1 52585U 22051BB  24325.77801014  .00000471  00000-0  47681-4 0  9991
2 52585  53.2174  86.5513 0001205  89.0290 271.0840 15.08838743140041
Source of the keplerian elements: AFSPC